Regional Weather Roundup
Issued by NWS

Home | Current Version | Previous Version | Graphics & Text | Print | Product List | Glossary On
Versions: 1 2 3 4 5 6 7 8 9 10 11 12 13 14 15 16 17 18 19 20 21 22 23 24 25 26 27 28 29 30 31 32 33 34 35 36 37 38 39 40 41 42 43 44 45 46 47 48 49
000
ASUS45 KBOU 030307
RWRCO

WEATHER ROUNDUP FOR COLORADO
NATIONAL WEATHER SERVICE DENVER/BOULDER CO
800 PM MST MON MAR 02 2015

NOTE: "FAIR" INDICATES FEW OR NO CLOUDS BELOW 12000 FEET WITH NO
SIGNIFICANT WEATHER AND/OR OBSTRUCTIONS TO VISIBILITY.

COZ001>005-013-030-031-030400-
...NORTHWEST COLORADO...

CITY           SKY/WX    TMP DP  RH WIND       PRES   REMARKS
CRAIG          LGT SNOW  34  32  92 S7        29.65S FOG     WCI  28
HAYDEN         CLOUDY    32  28  86 NW8       29.67R WCI  25
MEEKER         CLOUDY    36  29  75 S14       29.65F
MOUNT WERNER   NOT AVBL
STEAMBOAT SPGS CLOUDY    32  32  99 E6        29.66R WCI  26
WALDEN         CLOUDY    32  30  93 SW13      29.63S WCI  22
$$

COZ006>008-011-030400-
...WEST CENTRAL VALLEYS...

CITY           SKY/WX    TMP DP  RH WIND       PRES   REMARKS
GRAND JUNCTION CLOUDY    41  34  76 S9        29.70R
MONTROSE         N/A     37  31  78 S12       29.84
EAGLE          FLURRIES  36  34  93 SW16G24   29.73R
RIFLE          CLOUDY    38  33  82 E8        29.73R
DELTA          CLOUDY    41  37  83 E6        29.79F
NUCLA          CLOUDY    36  32  87 S18G24    29.83S
$$

COZ017>023-064>068-030400-
...SOUTHWEST COLORADO...

CITY           SKY/WX    TMP DP  RH WIND       PRES   REMARKS
DURANGO        NOT AVBL
CORTEZ         CLOUDY    35  30  82 S20       29.88F WCI  24
PAGOSA SPRINGS LGT SNOW  34  34 100 SW17G23   29.85R WCI  23
TELLURIDE      LGT SNOW  28  25  89 SW13G26   29.86F VSB 1   WCI  17
WOLF CREEK PAS CLOUDY    21  21 100 MISG      29.76F
$$

COZ009-010-012-014-032>034-037-058>063-030400-
...CENTRAL COLORADO...

CITY           SKY/WX    TMP DP  RH WIND       PRES   REMARKS
ASPEN          LGT SNOW  31  30  96 N10       29.72R FOG     WCI  22
BUENA VISTA    LGT SNOW  35  32  90 S10G17    29.65R WCI  27
COPPER MTN     NOT AVBL
BERTHOUD PASS  HVY SNOW  19  14  79 NW8       29.70F VSB<1/4 WCI   9
COTTONWOOD PAS SNOW      34  32  93 W14G22    29.67S VSB 1/2 WCI  24
GUNNISON       CLOUDY    34  27  75 W23G31    29.80R WCI  22
KREMMLING      LGT SNOW  34  32  93 W7G21     29.66R WCI  28
LEADVILLE      SNOW      28  28 100 VRB7      29.67R VSB 1/2 WCI  21
SALIDA         CLOUDY    39  34  83 SW16G31   29.75R
SUNLIGHT       CLOUDY    23  23 100 SW5         N/A  WCI  17
WILKERSON PASS LGT SNOW  27  27 100 SW8G20    29.69F VSB 3/4 WCI  18
$$

COZ069>075-030400-
...SAN LUIS VALLEY/SANGRE DE CRISTO MOUNTAINS...

CITY           SKY/WX    TMP DP  RH WIND       PRES   REMARKS
ALAMOSA        LGT RAIN  37  33  85 S21G32    29.74R
LA VETA PASS   LGT SNOW  32  30  93 S25G54    29.69F WCI  19
SAGUACHE       LGT RAIN  34  32  93 CALM      29.72F
$$

COZ035-036-038>040-030400-
...NORTHERN COLORADO FRONT RANGE...

CITY           SKY/WX    TMP DP  RH WIND       PRES   REMARKS
DENVER INTL AP MOCLDY    28  22  78 W7        29.53F HAZE    WCI  21
DMNS CITY PARK   N/A     28  22  79 NE1       29.53F
AURORA         MOCLDY    28  23  81 NW6       29.54F WCI  22
FRONT RANGE AP NOT AVBL
ERIE MUNI ARPT PTCLDY    26  24  89 CALM      29.55F FOG
BOULDER MUN AP MOCLDY    30  27  86 CALM      29.55F FOG
CENTENNIAL     MOCLDY    41  28  60 S16       29.53F
BROOMFIELD     MOCLDY    28  23  80 NW6       29.54F HAZE    WCI  22
FORT COLLINS   PTCLDY    28  21  74 SW3       29.58S
LONGMONT       PTCLDY    29  23  79 CALM      29.58F HAZE
$$

COZ041-046-047-076>085-087-088-030400-
...PIKES PEAK/PALMER DIVIDE AND SOUTHERN FOOTHILLS...

CITY           SKY/WX    TMP DP  RH WIND       PRES   REMARKS
COLO. SPRINGS  MOCLDY    28  24  85 CALM      29.64F
A. F. ACADEMY  PTCLDY    28  25  90 S5        29.62F WCI  22
ELLICOTT       NOT AVBL
FALCON         PTCLDY    28  25  91 CALM      29.65S
FORT CARSON    PTCLDY    31  28  88 N3        29.62F
LIMON          MOCLDY    27  24  89 E12       29.62F WCI  17
MONUMENT HILL  PTCLDY    34  30  86 S17       29.57F WCI  23
TRINIDAD       CLOUDY    39  31  72 W8        29.68F
$$

COZ042>045-048>051-090-091-030400-
...NORTHEAST COLORADO...

CITY           SKY/WX    TMP DP  RH WIND       PRES   REMARKS
GREELEY ARPT   PTCLDY    28  19  69 CALM      29.55S
AKRON          CLOUDY    29  28  96 SE12      29.55F WCI  19
BURLINGTON     CLOUDY    32  29  88 S23G30    29.63F WCI  19
WRAY           CLOUDY    34  31  89 SE12      29.63F WCI  25
STERLING       CLOUDY    32  28  86 E5        29.56F WCI  27
HOLYOKE        NOT AVBL
FORT MORGAN    CLOUDY    29  26  90 NE12      29.53F WCI  19
$$

COZ086-089-092>099-030400-
...SOUTHEAST COLORADO...

CITY           SKY/WX    TMP DP  RH WIND       PRES   REMARKS
PUEBLO         MOCLDY    31  29  92 W3        29.66F
LA JUNTA       CLOUDY    34  31  88 N7        29.66F WCI  28
LAMAR          CLOUDY    32  30  92 SW5       29.63F WCI  27
SPRINGFIELD      N/A     33  30  88 S22       29.73F WCI  21
$$


USA.gov is the U.S. government's official web portal to all federal, state and local government web resources and services.